Flag for Switzerland Weather past 2 weeks in Davos, Graubünden, Switzerland

Now
61 °F

Refreshingly cool.


Feels Like: 61 °F
Forecast: 39 / 53 °F
Wind: 6 mph from Northeast

Location: Chur-Ems

Current Time: May 24, 2015 at 7:55:29 PM

Latest Report: May 24, 2015 at 7:00 PM


Visibility: N/A

Pressure: 29.98 "Hg

Humidity: 55%

Dew point: 44 °F

Location of DavosLocation

Historic Weather in Davos — Graph

°F

Davos temperature yesterday

Maximum temperature yesterday: 55 °F (at 6:00 PM)
Minimum temperature yesterday: 47 °F (at 6:00 AM)
Average temperature yesterday: 52 °F

Past Weeks' High & Low Weather Summary

 TemperatureHumidityPressure
High85 °F (May 12, 3:00 PM)94% (May 10, 6:00 AM)30.41 "Hg (May 10, 6:00 AM)
Low41 °F (May 21, 4:00 AM)20% (May 11, 2:00 PM)29.68 "Hg (May 18, 6:00 PM)
Average57 °F69%30.08 "Hg
* Reported May 9 6:00 PM — May 24 6:00 PM, Davos, Weather by CustomWeather, © 2015

Note: Actual official high and low records may vary slightly from our data, if they occured in-between our weather recording intervals... More about our weather records

Advertising

Davos weather history for previous 24 hours

 ConditionsComfort  
Time TempWeatherWind HumidityBarometerVisibility
6:00 PM
Sun, May 24
62 °FRefreshingly cool.8 mph57%29.98 "HgN/A
5:00 PM63 °FFog.9 mph58%29.98 "Hg7 mi
4:00 PM61 °FRefreshingly cool.8 mph55%29.99 "HgN/A
3:00 PM62 °FRefreshingly cool.7 mph51%29.99 "HgN/A
2:00 PM60 °FOvercast.9 mph55%30.01 "Hg7 mi
1:00 PM61 °FRefreshingly cool.6 mph55%30.01 "HgN/A
12:00 PM57 °FCool.6 mph61%30.04 "HgN/A
11:00 AM56 °FCool.2 mph65%30.06 "HgN/A
10:00 AM53 °FCool.1 mph72%30.07 "HgN/A
9:00 AM51 °FCool.No wind79%30.08 "HgN/A
8:00 AM50 °FOvercast.1 mph81%30.08 "Hg9 mi
7:00 AM49 °FCool.1 mph85%30.08 "HgN/A
6:00 AM48 °FCool.1 mph87%30.08 "HgN/A
5:00 AM48 °FOvercast.1 mph87%30.07 "Hg5 mi
4:00 AM48 °FCool.1 mph87%30.08 "HgN/A
3:00 AM48 °FCool.1 mph87%30.08 "HgN/A
2:00 AM49 °FCool.No wind84%30.09 "HgN/A
1:00 AM49 °FCool.1 mph78%30.10 "HgN/A
12:00 AM50 °FCool.1 mph77%30.10 "HgN/A
10:00 PM
Sat, May 23
52 °FCool.1 mph70%30.08 "HgN/A
9:00 PM53 °FCool.3 mph64%30.05 "HgN/A
8:00 PM55 °FFog.7 mph56%30.03 "Hg5 mi
7:00 PM55 °FCool.8 mph55%30.02 "HgN/A
Weather by CustomWeather, © 2015

See weather overviewHow to use our weather pages